This demonstration page uses our WeatherBlox Daily Observations layout. Learn more.

Left ArrowRight Arrow

34.74481, -87.66753

Hourly Observations for July 14, 2022

Temp ( °F °C ) Dew Point ( °F °C ) Humidity (%) Winds ( mph kmh ) Pressure ( in mb ) Visibility ( mi km ) Precip ( " mm )
12:53 am 00:53 Clear with Mist and Fog 72 22.2 71 21.7 97 97 Calm 30.04 1017 4 6 0.00 0.00
1:53 am 01:53 Clear with Mist and Fog 72 22.2 70 21.1 94 94 Calm 30.03 1017 5 8 0.00 0.00
3:24 am 03:24 Clear with Mist and Fog 70 21.1 69 20.6 97 97 Calm 30.04 1017 2 3 0.00 0.00
3:34 am 03:34 Clear with Mist and Fog 71 21.7 69 20.6 94 94 Calm 30.04 1017 3 5 0.00 0.00
3:53 am 03:53 Clear 70 21.1 69 20.6 97 97 Calm 30.04 1017 7 11 0.00 0.00
4:13 am 04:13 Clear with Mist and Fog 70 21.1 69 20.6 97 97 Calm 30.06 1018 2 3 0.00 0.00
4:21 am 04:21 Clear with Mist and Fog 71 21.7 69 20.6 94 94 Calm 30.05 1018 1 1 0.00 0.00
4:34 am 04:34 Clear with Mist and Fog 71 21.7 69 20.6 94 94 Calm 30.05 1018 2 3 0.00 0.00
5:01 am 05:01 Mostly Clear with Mist and Fog 70 21.1 69 20.6 97 97 Calm 30.07 1018 2 3 0.00 0.00
5:04 am 05:04 Mostly Cloudy with Mist and Fog 70 21.1 69 20.6 97 97 Calm 30.07 1018 1 1 0.00 0.00
5:23 am 05:23 Partly Cloudy with Mist and Fog 71 21.7 69 20.6 94 94 Calm 30.06 1018 1 2 0.00 0.00
5:40 am 05:40 Partly Cloudy with Mist and Fog 70 21.1 69 20.6 97 97 S 3 6 30.07 1018 1 2 0.00 0.00
6:15 am 06:15 Cloudy with Fog 71 21.7 69 20.6 94 94 Calm 30.07 1018 1 1 0.00 0.00
6:45 am 06:45 Mostly Cloudy with Fog 72 22.2 71 21.7 97 97 Calm 30.08 1019 N/A 0.00 0.00
6:53 am 06:53 Mostly Cloudy with Fog 72 22.2 71 21.7 97 97 Calm 30.08 1019 N/A 0.00 0.00
8:14 am 08:14 Mostly Cloudy with Mist and Fog 75 23.9 73 22.8 94 94 Calm 30.10 1019 1 2 0.00 0.00
8:19 am 08:19 Mostly Cloudy with Mist and Fog 75 23.9 74 23.3 96 96 Calm 30.10 1019 3 5 0.00 0.00
8:35 am 08:35 Partly Cloudy with Mist and Fog 76 24.4 74 23.3 94 94 Calm 30.10 1019 6 10 0.00 0.00
8:53 am 08:53 Sunny 77 25 75 23.9 94 94 Calm 30.11 1020 9 14 0.00 0.00
9:53 am 09:53 Mostly Sunny 83 28.3 74 23.3 74 74 SE 6 9 30.12 1020 10 16 0.00 0.00
11:53 am 11:53 Mostly Cloudy 88 31.1 70 21.1 55 55 VRB 6 9 30.11 1020 10 16 0.00 0.00
1:53 pm 13:53 Mostly Sunny 90 32.2 67 19.4 47 47 ENE 5 7 30.08 1019 10 16 0.00 0.00
2:53 pm 14:53 Mostly Sunny 91 32.8 65 18.3 42 42 Calm 30.06 1018 10 16 0.00 0.00
3:53 pm 15:53 Mostly Sunny 92 33.3 64 17.8 40 40 undefined N/A 30.05 1018 10 16 0.00 0.00
4:53 pm 16:53 Sunny 90 32.2 65 18.3 44 44 E 5 7 30.04 1017 10 16 0.00 0.00
5:53 pm 17:53 Sunny 90 32.2 67 19.4 47 47 NE 8 13 30.04 1017 10 16 0.00 0.00
6:53 pm 18:53 Sunny 88 31.1 66 18.9 48 48 ENE 5 7 30.04 1017 10 16 0.00 0.00
7:53 pm 19:53 Sunny 84 28.9 67 19.4 57 57 Calm 30.06 1018 10 16 0.00 0.00
8:53 pm 20:53 Clear 78 25.6 70 21.1 76 76 Calm 30.07 1018 10 16 0.00 0.00
9:53 pm 21:53 Clear 75 23.9 70 21.1 84 84 Calm 30.09 1019 10 16 0.00 0.00
10:53 pm 22:53 Clear 74 23.3 69 20.6 85 85 Calm 30.11 1020 10 16 0.00 0.00
11:53 pm 23:53 Clear 72 22.2 69 20.6 91 91 Calm 30.11 1020 10 16 0.00 0.00

Powered by AerisWeather